[[{"header":{"parameterUnit":"m.s-1","parameterCategory":2,"la1":30.2991,"la2":30.254,"lo1":-89.0895,"lo2":-89.0444,"dy":0.0017,"dx":0.0017,"nx":28,"ny":28,"refTime":"2024-04-09T21:00:00:Z","depth":"0","parameterNumber":2,"parameterNumberName":"U-component_of_CURRENTS"},"data":[0,0,0,0,0,0,0,0,0,0,0,0,0,0,0,0,0,0,0,0,0,0,0,0,0,0,0,0,0,0,0,0,0,0,0,0,0,0,0,0,0,0,0,0,0,0,0,0,0,0,0,0,0,0,0,0,0,0,-0.1861,-0.1862,0,-0.187,-0.187,-0.187,-0.1859,-0.1859,-0.1859,-0.1859,-0.1801,-0.18,-0.1798,0,0,0,0,0,0,0,0,0,0,0,0,0,-0.1793,-0.1794,-0.1861,-0.1862,-0.1862,-0.187,-0.187,-0.187,-0.1859,-0.1859,-0.1859,-0.1859,-0.1802,-0.18,-0.1798,0,0,0,0,0,0,0,0,0,0,0,0,0,-0.1811,-0.1794,-0.1861,-0.186,-0.186,-0.187,-0.187,-0.187,-0.1859,-0.1859,-0.1859,-0.1858,-0.1802,-0.18,-0.1798,-0.1788,0,0,-0.1791,-0.1791,0,0,0,0,0,0,0,0,-0.181,-0.1813,-0.186,-0.186,-0.186,-0.1866,-0.1825,-0.184,-0.1859,-0.1856,-0.1859,-0.1858,-0.1819,-0.1815,-0.1814,-0.1785,-0.1783,-0.1791,-0.179,-0.1789,-0.1788,0,0,0,0,0,0,0,-0.1809,-0.1813,-0.1861,-0.186,-0.1861,-0.1845,-0.1847,-0.1828,-0.1834,-0.1856,-0.1856,-0.1862,-0.1818,-0.1816,-0.1812,-0.1782,-0.1791,-0.1789,-0.1788,-0.1787,-0.1752,-0.1752,0,0,0,0,0,0,-0.1817,-0.1812,-0.1861,-0.1862,-0.1838,-0.1847,-0.1849,-0.1862,-0.1836,-0.1834,-0.1863,-0.1862,-0.182,-0.1815,-0.181,-0.1818,-0.1789,-0.1787,-0.1786,-0.1752,-0.1752,-0.1752,0,0,0,0,0,0,-0.1816,-0.1822,-0.1861,-0.1839,-0.1843,-0.1849,-0.1862,-0.1862,-0.1863,-0.1842,-0.1838,-0.1864,-0.1819,-0.1813,-0.18,-0.1815,-0.1786,-0.1784,-0.1751,-0.1752,-0.1752,-0.1821,0,0,0,0,0,0,-0.1814,-0.1821,-0.1827,-0.184,-0.1845,-0.1874,-0.1863,-0.1863,-0.1868,-0.1867,-0.1842,-0.1837,-0.1819,-0.1804,-0.1798,-0.1812,-0.1782,-0.1751,-0.1751,-0.1752,-0.1818,-0.1824,-0.1828,0,0,0,0,0,-0.1811,-0.1823,-0.1827,-0.1833,-0.1855,-0.1875,-0.1876,-0.1876,-0.1868,-0.1874,-0.1857,-0.1837,-0.1804,-0.1803,-0.1796,-0.1809,-0.175,-0.1751,-0.1752,-0.1816,-0.1822,-0.1828,0,0,0,0,0,0,-0.1793,-0.1824,-0.1829,-0.1848,-0.1864,-0.1875,-0.1877,-0.1879,-0.187,-0.1865,-0.1841,-0.1835,-0.1829,-0.1807,-0.1806,-0.1799,-0.1774,-0.1773,-0.1824,-0.183,-0.1835,-0.1842,-0.1781,0,0,0,0,0,-0.1794,-0.181,-0.1837,-0.185,-0.1861,-0.1869,-0.1874,-0.1879,-0.1877,-0.1874,-0.1858,-0.1838,-0.1827,-0.1819,-0.1801,-0.1798,-0.1797,-0.18,-0.1806,-0.181,-0.1811,-0.1832,-0.184,-0.1755,-0.1755,-0.1755,0,0,-0.1788,-0.1808,-0.1815,-0.1847,-0.1856,-0.188,-0.1871,-0.1885,-0.1902,-0.1867,-0.1872,-0.1853,-0.1828,-0.1828,-0.1823,-0.1812,-0.1836,-0.1811,-0.1816,-0.1813,-0.1834,-0.1842,-0.185,-0.1755,-0.1755,-0.1755,0,0,-0.179,-0.1806,-0.1823,-0.1845,-0.1871,-0.1882,-0.189,-0.1905,-0.1908,-0.1914,-0.1895,-0.1887,-0.1864,-0.1859,-0.1851,-0.187,-0.1861,-0.1861,-0.1897,-0.1918,-0.1926,-0.1933,-0.1958,-0.1967,-0.1867,-0.1868,-0.1868,0,-0.1781,-0.1814,-0.1829,-0.1858,-0.1879,-0.1887,-0.1915,-0.1923,-0.1931,-0.1939,-0.1921,-0.1907,-0.1882,-0.1895,-0.1899,-0.1884,-0.1895,-0.188,-0.1928,-0.1934,-0.1939,-0.1964,-0.1972,-0.1871,-0.1871,-0.187,-0.187,0,-0.1802,-0.1833,-0.1845,-0.1888,-0.191,-0.1935,-0.196,-0.1973,-0.1974,-0.1982,-0.199,-0.1963,-0.1955,-0.195,-0.1927,-0.1956,-0.1952,-0.1933,-0.1918,-0.1953,-0.1976,-0.1983,-0.1876,-0.1875,-0.1874,-0.1873,0,0,-0.1772,-0.1847,-0.185,-0.1883,-0.1932,-0.1952,-0.1987,-0.2022,-0.2048,-0.2043,-0.2074,-0.2048,-0.2033,-0.2021,-0.1999,-0.2014,-0.2062,-0.1992,-0.1991,-0.2028,-0.2121,-0.2117,-0.2124,-0.2058,-0.206,-0.2061,-0.2128,0,-0.1783,-0.1844,-0.188,-0.1934,-0.1969,-0.2003,-0.2038,-0.2069,-0.2085,-0.2115,-0.2101,-0.2108,-0.2062,-0.2059,-0.2069,-0.206,-0.2083,-0.2046,-0.2072,-0.2073,-0.2073,-0.2132,-0.2067,-0.2122,-0.2135,-0.2136,-0.2137,0,-0.179,-0.1835,-0.1892,-0.1973,-0.199,-0.202,-0.2081,-0.2115,-0.2161,-0.2173,-0.2184,-0.2176,-0.2187,-0.2143,-0.2162,-0.2143,-0.2135,-0.2131,-0.2133,-0.2107,-0.2081,-0.2084,-0.2134,-0.2119,-0.2149,-0.2148,-0.2147,0,-0.1757,-0.1841,-0.1887,-0.1915,-0.2003,-0.2029,-0.2066,-0.2122,-0.2155,-0.2203,-0.2232,-0.2245,-0.2251,-0.2248,-0.2223,-0.2201,-0.2255,-0.2223,-0.2217,-0.2217,-0.2154,-0.2146,-0.2198,-0.2247,-0.2247,-0.2247,-0.2246,0,-0.1756,-0.1793,-0.1873,-0.19,-0.1953,-0.2014,-0.2065,-0.2109,-0.2172,-0.2224,-0.2246,-0.2285,-0.2277,-0.2301,-0.2271,-0.2274,-0.2292,-0.224,-0.224,-0.2177,-0.217,-0.2145,-0.214,-0.2249,-0.2249,-0.2248,-0.2248,0,-0.1715,-0.177,-0.1827,-0.1915,-0.1939,-0.1969,-0.2052,-0.2092,-0.2159,-0.2231,-0.2247,-0.2321,-0.2361,-0.236,-0.2371,-0.2338,-0.2309,-0.2329,-0.2259,-0.225,-0.2223,-0.2223,-0.2261,-0.22,-0.2346,-0.2347,-0.2347,0,-0.17,-0.1724,-0.1815,-0.1838,-0.1874,-0.1928,-0.197,-0.2059,-0.2112,-0.225,-0.2288,-0.2364,-0.241,-0.2441,-0.2403,-0.2387,-0.2337,-0.2314,-0.2252,-0.2234,-0.2234,-0.2217,-0.2159,-0.2202,-0.2201,-0.22,-0.22,0,-0.1662,-0.169,-0.1732,-0.1781,-0.1823,-0.1882,-0.1952,-0.1995,-0.212,-0.2196,-0.2311,-0.2365,-0.2435,-0.2414,-0.2401,-0.2358,-0.2268,-0.23,-0.2295,-0.2147,-0.2116,-0.2052,-0.2153,-0.2193,-0.2194,-0.2194,-0.2195,-0.2195,-0.1612,-0.1626,-0.1668,-0.1708,-0.1756,-0.1805,-0.1813,-0.1925,-0.2003,-0.2111,-0.2246,-0.2316,-0.2382,-0.2362,-0.2342,-0.2263,-0.2245,-0.2182,-0.2193,-0.2185,-0.2098,-0.2196,-0.2224,-0.2225,-0.2225,-0.2226,-0.2226,0,-0.1544,-0.1561,-0.159,-0.1626,-0.1631,-0.1693,-0.1773,-0.1773,-0.1837,-0.2005,-0.2096,-0.2218,-0.2225,-0.2267,-0.224,-0.2169,-0.2088,-0.2106,-0.2052,-0.2001,-0.2101,-0.2064,-0.2041,-0.2041,-0.2041,-0.2041,-0.2041,-0.2041,-0.1503,-0.15,-0.1517,-0.1483,-0.1497,-0.1469,-0.1484,-0.1525,-0.1611,-0.1723,-0.1842,-0.1987,-0.2048,-0.2279,-0.2222,-0.2128,-0.2047,-0.2001,-0.1991,-0.2055,-0.2062,-0.2069,-0.2034,-0.2005,-0.2005,-0.182,-0.1818,-0.1818]},{"header":{"parameterUnit":"m.s-1","parameterCategory":2,"la1":30.2991,"la2":30.254,"lo1":-89.0895,"lo2":-89.0444,"dy":0.0017,"dx":0.0017,"nx":28,"ny":28,"refTime":"2024-04-09T21:00:00:Z","depth":"0","parameterNumber":3,"parameterNumberName":"V-component_of_CURRENTS"},"data":[0,0,0,0,0,0,0,0,0,0,0,0,0,0,0,0,0,0,0,0,0,0,0,0,0,0,0,0,0,0,0,0,0,0,0,0,0,0,0,0,0,0,0,0,0,0,0,0,0,0,0,0,0,0,0,0,0,0,-0.0012,-0.0012,0,0.0063,0.0064,0.0065,0.0106,0.0106,0.0106,0.0106,0.0198,0.02,0.0203,0,0,0,0,0,0,0,0,0,0,0,0,0,-0.007,-0.007,-0.0013,-0.0012,-0.0011,0.0063,0.0064,0.0065,0.0105,0.0106,0.0106,0.0106,0.0197,0.02,0.0203,0,0,0,0,0,0,0,0,0,0,0,0,0,-0.0025,-0.0069,-0.0013,0.0018,0.0021,0.0063,0.0064,0.0065,0.0105,0.0106,0.0106,0.0106,0.0196,0.02,0.0203,0.0225,0,0,0.0215,0.0216,0,0,0,0,0,0,0,0,-0.0027,-0.0023,0.0013,0.0016,0.002,0.0075,0.0078,0.0119,0.0105,0.0074,0.0106,0.0106,0.0158,0.0165,0.0179,0.0229,0.0233,0.0215,0.0217,0.0219,0.022,0,0,0,0,0,0,0,-0.0031,-0.0025,0.0018,0.0013,0.0018,0.0046,0.0052,0.0086,0.0115,0.0077,0.008,0.0087,0.016,0.0176,0.0182,0.0234,0.0215,0.0218,0.022,0.0222,0.0323,0.0323,0,0,0,0,0,0,-0.0044,-0.0029,0.0016,0.002,-0.0005,0.0046,0.0053,0.0057,0.0115,0.0123,0.0087,0.0089,0.0169,0.0178,0.0185,0.0223,0.0219,0.0222,0.0224,0.0322,0.0323,0.0323,0,0,0,0,0,0,-0.0045,-0.0041,0.0012,-0.0003,0.0006,0.0047,0.0051,0.0059,0.0074,0.0123,0.0132,0.0095,0.017,0.018,0.0219,0.0227,0.0224,0.0227,0.0322,0.0323,0.0323,0.0293,0,0,0,0,0,0,-0.0047,-0.0042,-0.0045,-0.0004,0.0006,0.0031,0.0052,0.006,0.0079,0.0082,0.0132,0.0141,0.0171,0.0213,0.0222,0.0231,0.023,0.0321,0.0322,0.0323,0.0293,0.0292,0.0292,0,0,0,0,0,-0.005,-0.0057,-0.0046,-0.004,0.0001,0.003,0.0038,0.0068,0.0079,0.0083,0.0122,0.0139,0.0226,0.0216,0.0227,0.0238,0.0321,0.0322,0.0323,0.0293,0.0292,0.0292,0,0,0,0,0,0,-0.0085,-0.0053,-0.0039,-0.0037,-0.0008,0.0037,0.0041,0.0065,0.0099,0.0101,0.0147,0.0159,0.0195,0.0221,0.021,0.027,0.0276,0.0279,0.025,0.0249,0.0248,0.0237,0.0233,0,0,0,0,0,-0.0095,-0.0093,-0.0053,-0.0052,-0.0041,0.0,0.0015,0.0037,0.0073,0.0088,0.0126,0.0168,0.0208,0.0231,0.0266,0.03,0.0331,0.0314,0.0313,0.0313,0.0311,0.0367,0.0371,0.0327,0.0327,0.0327,0,0,-0.0109,-0.0091,-0.009,-0.006,-0.0037,-0.0022,0.0009,0.0027,0.0046,0.0093,0.0125,0.0165,0.0216,0.0254,0.0273,0.0277,0.0341,0.0314,0.0313,0.0312,0.0368,0.0372,0.0376,0.0328,0.0328,0.0328,0,0,-0.014,-0.0121,-0.013,-0.0106,-0.0075,-0.0044,-0.0041,0.0004,0.0029,0.0065,0.0107,0.0152,0.0207,0.0253,0.0281,0.0299,0.0333,0.0308,0.0299,0.0353,0.0357,0.0361,0.0403,0.041,0.0311,0.0311,0.031,0,-0.016,-0.0163,-0.0128,-0.0125,-0.0108,-0.0058,-0.0056,-0.002,0.0033,0.006,0.0067,0.0168,0.0208,0.0272,0.0278,0.0298,0.0328,0.0296,0.0352,0.0356,0.0361,0.0403,0.0412,0.0309,0.0309,0.0309,0.031,0,-0.0191,-0.0192,-0.0194,-0.0173,-0.0148,-0.014,-0.0084,-0.0056,-0.002,0.0024,0.0087,0.0149,0.021,0.0233,0.0261,0.0317,0.0328,0.0341,0.035,0.0363,0.0407,0.0416,0.0307,0.0308,0.0308,0.0308,0,0,-0.0238,-0.0223,-0.0222,-0.0222,-0.0172,-0.0157,-0.012,-0.0068,-0.0042,0.0021,0.0063,0.0144,0.0183,0.0219,0.0268,0.0318,0.0375,0.0337,0.0341,0.0372,0.0486,0.0527,0.0541,0.0396,0.0398,0.0399,0.0503,0,-0.0274,-0.0296,-0.0263,-0.0266,-0.0271,-0.0205,-0.0175,-0.0116,-0.0059,-0.0005,0.0082,0.0135,0.0178,0.0204,0.0265,0.0348,0.04,0.0345,0.0475,0.0479,0.0508,0.0554,0.0603,0.0702,0.0513,0.0514,0.0515,0,-0.0308,-0.0322,-0.0343,-0.032,-0.0312,-0.0298,-0.0235,-0.0201,-0.0102,-0.0057,0.0024,0.0092,0.019,0.0209,0.0366,0.0328,0.0401,0.0463,0.0469,0.0524,0.0538,0.0661,0.0728,0.0888,0.0531,0.053,0.0529,0,-0.0366,-0.0368,-0.0391,-0.0382,-0.0349,-0.0335,-0.0307,-0.0221,-0.0191,-0.009,-0.0058,0.0072,0.0132,0.0248,0.0388,0.0377,0.0551,0.0553,0.066,0.0663,0.074,0.0747,0.0973,0.0655,0.0655,0.0655,0.0654,0,-0.0413,-0.0428,-0.0425,-0.0438,-0.0454,-0.0398,-0.0387,-0.0334,-0.026,-0.0222,-0.0096,-0.0037,0.0142,0.0269,0.0386,0.0564,0.0557,0.0672,0.0702,0.073,0.0735,0.0906,0.0954,0.0659,0.0658,0.0657,0.0656,0,-0.0468,-0.0466,-0.0497,-0.0489,-0.0487,-0.0497,-0.0463,-0.0454,-0.0367,-0.0315,-0.0287,-0.0113,0.007,0.0253,0.0455,0.0563,0.0819,0.0778,0.0796,0.0827,0.107,0.1113,0.1326,0.1396,0.0919,0.0921,0.0922,0,-0.0497,-0.0525,-0.0553,-0.0582,-0.0583,-0.059,-0.0598,-0.0524,-0.0504,-0.0357,-0.0338,-0.0144,0.0012,0.0337,0.0576,0.0815,0.0909,0.0974,0.0968,0.1112,0.1182,0.1195,0.1238,0.1057,0.106,0.1062,0.1064,0,-0.0557,-0.057,-0.0602,-0.0676,-0.0703,-0.0726,-0.0721,-0.0717,-0.0614,-0.0543,-0.0405,-0.0264,0.0097,0.0431,0.0754,0.0883,0.1095,0.1022,0.1184,0.1327,0.1346,0.1417,0.0946,0.1082,0.108,0.1078,0.1077,0.1077,-0.0597,-0.0644,-0.07,-0.0765,-0.0808,-0.0847,-0.0866,-0.0829,-0.0785,-0.0642,-0.0472,-0.0222,0.0311,0.0799,0.0962,0.1333,0.1256,0.143,0.1474,0.1477,0.1546,0.1106,0.1264,0.1263,0.1263,0.1262,0.1262,0,-0.0643,-0.0706,-0.0784,-0.0862,-0.0936,-0.0928,-0.094,-0.0935,-0.0884,-0.0672,-0.0492,0.01,0.0606,0.106,0.1613,0.1791,0.1802,0.1864,0.1915,0.1938,0.1582,0.1592,0.1814,0.1813,0.1813,0.1813,0.1813,0.1813,-0.067,-0.0763,-0.0816,-0.0959,-0.1014,-0.1081,-0.109,-0.1049,-0.0908,-0.0578,-0.0235,0.0085,0.0773,0.1717,0.2211,0.2226,0.2364,0.2334,0.2393,0.2177,0.214,0.2105,0.213,0.2461,0.2462,0.2739,0.2742,0.2745]}],[{"header":{"parameterUnit":"m.s-1","parameterCategory":2,"la1":30.2991,"la2":30.254,"lo1":-89.0895,"lo2":-89.0444,"dy":0.0017,"dx":0.0017,"nx":28,"ny":28,"refTime":"2024-04-09T21:00:00:Z","depth":"2","parameterNumber":2,"parameterNumberName":"U-component_of_CURRENTS"},"data":[0,0,0,0,0,0,0,0,0,0,0,0,0,0,0,0,0,0,0,0,0,0,0,0,0,0,0,0,0,0,0,0,0,0,0,0,0,0,0,0,0,0,0,0,0,0,0,0,0,0,0,0,0,0,0,0,0,0,-0.1751,-0.1751,0,-0.1759,-0.1759,-0.1759,-0.1751,-0.1751,-0.1751,-0.1751,-0.1696,-0.1695,-0.1694,0,0,0,0,0,0,0,0,0,0,0,0,0,-0.1686,-0.1687,-0.1751,-0.1751,-0.1751,-0.1759,-0.1759,-0.1759,-0.1751,-0.1751,-0.1751,-0.1751,-0.1697,-0.1695,-0.1693,0,0,0,0,0,0,0,0,0,0,0,0,0,-0.1703,-0.1687,-0.1751,-0.1751,-0.1751,-0.1759,-0.1759,-0.1759,-0.1751,-0.1751,-0.1751,-0.1751,-0.1697,-0.1695,-0.1693,-0.1681,0,0,-0.1687,-0.1686,0,0,0,0,0,0,0,0,-0.1702,-0.1705,-0.175,-0.1751,-0.1751,-0.1757,-0.1717,-0.1731,-0.1751,-0.1748,-0.1751,-0.1751,-0.1713,-0.171,-0.1708,-0.1678,-0.1676,-0.1687,-0.1685,-0.1684,-0.1684,0,0,0,0,0,0,0,-0.1701,-0.1704,-0.1751,-0.1751,-0.1751,-0.1737,-0.1739,-0.1719,-0.1727,-0.1748,-0.1748,-0.1754,-0.1712,-0.171,-0.1706,-0.1675,-0.1687,-0.1685,-0.1683,-0.1683,-0.1647,-0.1647,0,0,0,0,0,0,-0.1709,-0.1704,-0.1751,-0.1751,-0.173,-0.1738,-0.1741,-0.1752,-0.1728,-0.1726,-0.1754,-0.1754,-0.1713,-0.1709,-0.1704,-0.1714,-0.1684,-0.1682,-0.1681,-0.1647,-0.1647,-0.1647,0,0,0,0,0,0,-0.1708,-0.1713,-0.175,-0.173,-0.1734,-0.174,-0.1753,-0.1753,-0.1755,-0.1735,-0.173,-0.1758,-0.1713,-0.1707,-0.1695,-0.171,-0.1681,-0.1679,-0.1646,-0.1647,-0.1647,-0.1716,0,0,0,0,0,0,-0.1706,-0.1713,-0.1719,-0.1731,-0.1735,-0.1763,-0.1753,-0.1753,-0.176,-0.176,-0.1736,-0.1731,-0.1713,-0.1699,-0.1693,-0.1707,-0.1678,-0.1646,-0.1646,-0.1647,-0.1713,-0.1719,-0.1724,0,0,0,0,0,-0.1703,-0.1715,-0.1719,-0.1725,-0.1746,-0.1764,-0.1765,-0.1766,-0.1761,-0.1766,-0.1751,-0.1732,-0.1699,-0.1698,-0.1691,-0.1704,-0.1645,-0.1646,-0.1647,-0.1711,-0.1718,-0.1723,0,0,0,0,0,0,-0.1687,-0.1716,-0.1721,-0.174,-0.1755,-0.1764,-0.1768,-0.177,-0.1763,-0.1759,-0.1735,-0.1729,-0.1724,-0.1702,-0.1701,-0.1694,-0.1669,-0.1668,-0.172,-0.1726,-0.1731,-0.1737,-0.1676,0,0,0,0,0,-0.1689,-0.1704,-0.1729,-0.1742,-0.1753,-0.176,-0.1766,-0.1771,-0.177,-0.1767,-0.1752,-0.1733,-0.1721,-0.1714,-0.1696,-0.1692,-0.1691,-0.1695,-0.1701,-0.1705,-0.1705,-0.1725,-0.1732,-0.165,-0.165,-0.165,0,0,-0.1683,-0.1703,-0.171,-0.174,-0.1748,-0.1772,-0.1763,-0.1778,-0.1794,-0.176,-0.1767,-0.1748,-0.1723,-0.1722,-0.1718,-0.1707,-0.1731,-0.1706,-0.1711,-0.1708,-0.1726,-0.1735,-0.1742,-0.165,-0.165,-0.165,0,0,-0.1686,-0.1702,-0.1719,-0.174,-0.1766,-0.1775,-0.1784,-0.1799,-0.1803,-0.1809,-0.179,-0.1783,-0.1761,-0.1754,-0.1745,-0.1765,-0.1755,-0.1757,-0.1791,-0.1811,-0.1819,-0.1825,-0.1851,-0.1859,-0.1762,-0.1762,-0.1763,0,-0.1679,-0.171,-0.1725,-0.1753,-0.1773,-0.1782,-0.1809,-0.1817,-0.1825,-0.1833,-0.1817,-0.1802,-0.1778,-0.1788,-0.1793,-0.1778,-0.1789,-0.1774,-0.182,-0.1826,-0.1832,-0.1856,-0.1864,-0.1766,-0.1765,-0.1765,-0.1765,0,-0.17,-0.1729,-0.1742,-0.1783,-0.1805,-0.1829,-0.1853,-0.1867,-0.1869,-0.1876,-0.1884,-0.1858,-0.185,-0.1844,-0.1822,-0.1849,-0.1846,-0.1826,-0.1811,-0.1845,-0.1868,-0.1875,-0.1771,-0.177,-0.1768,-0.1768,0,0,-0.1672,-0.1744,-0.1748,-0.1779,-0.1826,-0.1846,-0.188,-0.1913,-0.1939,-0.1936,-0.1966,-0.1939,-0.1926,-0.1914,-0.1892,-0.1905,-0.1953,-0.1884,-0.1884,-0.192,-0.201,-0.2002,-0.2009,-0.1948,-0.1949,-0.195,-0.2017,0,-0.1684,-0.1742,-0.1776,-0.1829,-0.1862,-0.1895,-0.1929,-0.1959,-0.1975,-0.2005,-0.1991,-0.1998,-0.1954,-0.1952,-0.1961,-0.1951,-0.1972,-0.1937,-0.196,-0.1961,-0.1959,-0.2017,-0.1831,-0.1874,-0.2024,-0.2025,-0.2026,0,-0.1691,-0.1734,-0.1788,-0.1865,-0.1883,-0.1912,-0.1971,-0.2004,-0.2049,-0.2061,-0.2073,-0.2065,-0.2075,-0.2033,-0.2049,-0.2032,-0.2025,-0.2019,-0.2022,-0.1992,-0.1967,-0.1858,-0.1881,-0.2038,-0.2037,-0.2036,-0.2035,0,-0.1659,-0.174,-0.1783,-0.181,-0.1895,-0.1921,-0.1958,-0.2012,-0.2044,-0.2092,-0.212,-0.2132,-0.2138,-0.2135,-0.211,-0.2088,-0.2138,-0.2107,-0.2099,-0.2099,-0.1932,-0.1915,-0.213,-0.213,-0.2129,-0.2129,-0.2129,0,-0.1659,-0.1694,-0.177,-0.1796,-0.1848,-0.1907,-0.1957,-0.2001,-0.2063,-0.2114,-0.2136,-0.2172,-0.2164,-0.2185,-0.2156,-0.2157,-0.2175,-0.2121,-0.2121,-0.1952,-0.1937,-0.206,-0.2051,-0.2132,-0.2131,-0.2131,-0.213,0,-0.1618,-0.1671,-0.1725,-0.181,-0.1834,-0.1864,-0.1947,-0.1986,-0.2052,-0.2122,-0.2139,-0.2208,-0.2244,-0.2243,-0.2251,-0.2217,-0.2214,-0.2206,-0.2017,-0.1993,-0.2153,-0.2147,-0.222,-0.222,-0.222,-0.2221,-0.2221,0,-0.1603,-0.1625,-0.1713,-0.1736,-0.1772,-0.1826,-0.1867,-0.1956,-0.2007,-0.2139,-0.2175,-0.2247,-0.2285,-0.2311,-0.2255,-0.2234,-0.2249,-0.2061,-0.1983,-0.2173,-0.2165,-0.2158,-0.2152,-0.179,-0.1787,-0.1784,-0.1782,0,-0.1564,-0.1591,-0.163,-0.168,-0.1722,-0.178,-0.1849,-0.1891,-0.2012,-0.2082,-0.2188,-0.2234,-0.2283,-0.2186,-0.2165,-0.211,-0.205,-0.2009,-0.2252,-0.1807,-0.1777,-0.1766,-0.1772,-0.1758,-0.176,-0.1762,-0.1764,-0.1764,-0.1514,-0.1526,-0.1565,-0.1606,-0.1655,-0.1704,-0.1711,-0.181,-0.188,-0.195,-0.2094,-0.2091,-0.2117,-0.1987,-0.1928,-0.1849,-0.1974,-0.1858,-0.1863,-0.1871,-0.182,-0.1793,-0.1768,-0.177,-0.1772,-0.1774,-0.1776,0,-0.1441,-0.146,-0.1488,-0.1524,-0.1528,-0.1596,-0.1672,-0.1646,-0.1689,-0.1787,-0.1847,-0.1706,-0.1692,-0.17,-0.1559,-0.157,-0.1501,-0.1497,-0.1389,-0.1414,-0.1437,-0.1359,-0.1188,-0.1186,-0.1185,-0.1183,0,0,-0.14,-0.1391,-0.1407,-0.1375,-0.1396,-0.1361,-0.1375,-0.1366,-0.139,-0.1362,-0.136,-0.1536,-0.1625,-0.1386,-0.1365,-0.1249,-0.13,-0.1185,-0.1652,-0.1546,-0.1566,-0.1645,-0.1556,0,0,0,0,0]},{"header":{"parameterUnit":"m.s-1","parameterCategory":2,"la1":30.2991,"la2":30.254,"lo1":-89.0895,"lo2":-89.0444,"dy":0.0017,"dx":0.0017,"nx":28,"ny":28,"refTime":"2024-04-09T21:00:00:Z","depth":"2","parameterNumber":3,"parameterNumberName":"V-component_of_CURRENTS"},"data":[0,0,0,0,0,0,0,0,0,0,0,0,0,0,0,0,0,0,0,0,0,0,0,0,0,0,0,0,0,0,0,0,0,0,0,0,0,0,0,0,0,0,0,0,0,0,0,0,0,0,0,0,0,0,0,0,0,0,-0.0063,-0.0062,0,0.0012,0.0013,0.0014,0.0054,0.0054,0.0054,0.0054,0.0145,0.0147,0.015,0,0,0,0,0,0,0,0,0,0,0,0,0,-0.0121,-0.012,-0.0063,-0.0062,-0.0061,0.0012,0.0013,0.0014,0.0054,0.0054,0.0054,0.0054,0.0144,0.0147,0.015,0,0,0,0,0,0,0,0,0,0,0,0,0,-0.0075,-0.012,-0.0063,-0.0033,-0.0029,0.0012,0.0013,0.0014,0.0054,0.0054,0.0054,0.0054,0.0143,0.0147,0.015,0.0171,0,0,0.0161,0.0163,0,0,0,0,0,0,0,0,-0.0078,-0.0073,-0.0038,-0.0035,-0.0031,0.0023,0.0026,0.0067,0.0054,0.0023,0.0054,0.0054,0.0106,0.0112,0.0127,0.0175,0.0179,0.0162,0.0164,0.0165,0.0166,0,0,0,0,0,0,0,-0.0081,-0.0076,-0.0033,-0.0037,-0.0033,-0.0005,0.0001,0.0034,0.0063,0.0026,0.0029,0.0036,0.0108,0.0123,0.0129,0.0181,0.0161,0.0165,0.0167,0.0168,0.027,0.027,0,0,0,0,0,0,-0.0094,-0.0079,-0.0035,-0.0031,-0.0055,-0.0005,0.0002,0.0006,0.0063,0.0071,0.0036,0.0038,0.0117,0.0125,0.0132,0.0171,0.0165,0.0169,0.0171,0.0269,0.027,0.027,0,0,0,0,0,0,-0.0096,-0.0091,-0.0038,-0.0053,-0.0045,-0.0004,0.0,0.0008,0.0024,0.0071,0.0079,0.0044,0.0117,0.0127,0.0166,0.0174,0.017,0.0173,0.0268,0.0269,0.027,0.0241,0,0,0,0,0,0,-0.0098,-0.0092,-0.0095,-0.0054,-0.0044,-0.002,0.0001,0.0009,0.0028,0.0031,0.0081,0.0089,0.0118,0.0161,0.017,0.0179,0.0176,0.0268,0.0269,0.027,0.0241,0.0241,0.024,0,0,0,0,0,-0.01,-0.0107,-0.0096,-0.009,-0.005,-0.002,-0.0012,0.0018,0.0028,0.0033,0.0071,0.0088,0.0174,0.0164,0.0175,0.0185,0.0267,0.0268,0.027,0.0242,0.0241,0.024,0,0,0,0,0,0,-0.0135,-0.0103,-0.0089,-0.0087,-0.0058,-0.0013,-0.0008,0.0015,0.0049,0.0051,0.0096,0.0108,0.0144,0.0169,0.0158,0.0218,0.0223,0.0226,0.0198,0.0198,0.0197,0.0184,0.0179,0,0,0,0,0,-0.0144,-0.0142,-0.0103,-0.0102,-0.009,-0.0049,-0.0034,-0.0012,0.0024,0.0039,0.0076,0.0118,0.0158,0.018,0.0215,0.0249,0.0277,0.0263,0.0262,0.0261,0.0259,0.0311,0.0315,0.0274,0.0274,0.0274,0,0,-0.0158,-0.014,-0.0139,-0.0109,-0.0085,-0.0071,-0.004,-0.0021,-0.0003,0.0043,0.0076,0.0115,0.0166,0.0204,0.0222,0.0226,0.0288,0.0263,0.0262,0.026,0.0313,0.0317,0.032,0.0275,0.0275,0.0275,0,0,-0.0188,-0.0169,-0.0177,-0.0153,-0.0122,-0.0092,-0.0088,-0.0043,-0.0018,0.0018,0.0059,0.0104,0.0158,0.0203,0.0232,0.0251,0.0281,0.0259,0.0251,0.0301,0.0305,0.0308,0.0348,0.0355,0.0262,0.0262,0.0262,0,-0.0208,-0.021,-0.0175,-0.0172,-0.0155,-0.0105,-0.0103,-0.0067,-0.0013,0.0012,0.002,0.012,0.016,0.0222,0.0229,0.025,0.0277,0.0247,0.03,0.0304,0.0308,0.0348,0.0356,0.0261,0.0261,0.0261,0.0261,0,-0.0237,-0.0237,-0.0239,-0.0218,-0.0193,-0.0185,-0.013,-0.0101,-0.0066,-0.0023,0.004,0.0102,0.0162,0.0185,0.0213,0.0267,0.0277,0.029,0.0298,0.031,0.0351,0.036,0.0259,0.0259,0.026,0.026,0,0,-0.0282,-0.0267,-0.0266,-0.0267,-0.0217,-0.0202,-0.0165,-0.0115,-0.009,-0.0027,0.0013,0.0095,0.0134,0.0169,0.0218,0.0266,0.032,0.0285,0.0288,0.0316,0.0425,0.046,0.0474,0.034,0.0342,0.0343,0.044,0,-0.0317,-0.0339,-0.0306,-0.031,-0.0315,-0.025,-0.0221,-0.0163,-0.0106,-0.0054,0.0032,0.0084,0.0128,0.0154,0.0213,0.0294,0.0343,0.0292,0.0414,0.0418,0.0443,0.0486,0.0418,0.0502,0.045,0.0451,0.0452,0,-0.0351,-0.0364,-0.0386,-0.0365,-0.0358,-0.0343,-0.0283,-0.0249,-0.0153,-0.0109,-0.0029,0.0039,0.0134,0.0155,0.0307,0.0271,0.0342,0.0402,0.0407,0.0456,0.0472,0.0483,0.0521,0.0468,0.0467,0.0466,0.0465,0,-0.0409,-0.0411,-0.0435,-0.0427,-0.0395,-0.0382,-0.0354,-0.027,-0.0241,-0.0143,-0.0112,0.0015,0.0074,0.0187,0.0324,0.0314,0.048,0.0484,0.0585,0.0587,0.0563,0.0561,0.0581,0.0581,0.0581,0.0581,0.058,0,-0.0456,-0.0472,-0.0469,-0.0483,-0.05,-0.0445,-0.0436,-0.0383,-0.0311,-0.0275,-0.015,-0.0094,0.0082,0.0205,0.0319,0.0491,0.0484,0.0595,0.0623,0.0552,0.0548,0.0541,0.0536,0.0584,0.0583,0.0583,0.0582,0,-0.0512,-0.0509,-0.0542,-0.0535,-0.0533,-0.0545,-0.051,-0.0502,-0.0417,-0.0367,-0.0339,-0.0171,0.0005,0.0184,0.038,0.0485,0.0638,0.0693,0.0596,0.0612,0.0709,0.07,0.082,0.0822,0.0824,0.0826,0.0827,0,-0.0541,-0.0569,-0.0598,-0.0627,-0.0628,-0.0636,-0.0645,-0.0572,-0.0552,-0.0411,-0.0393,-0.0206,-0.006,0.0254,0.0469,0.0696,0.0694,0.0756,0.0736,0.0722,0.0737,0.0726,0.0715,0.0687,0.0687,0.0687,0.0687,0,-0.0601,-0.0614,-0.0647,-0.0721,-0.0748,-0.0771,-0.0766,-0.0762,-0.0661,-0.0597,-0.0467,-0.0335,-0.0004,0.0252,0.0559,0.067,0.072,0.0767,0.0788,0.064,0.0605,0.0617,0.0609,0.0687,0.0687,0.0687,0.0687,0.0687,-0.0641,-0.0689,-0.0746,-0.081,-0.0853,-0.0891,-0.091,-0.0876,-0.0837,-0.0716,-0.0557,-0.0353,-0.0054,0.0366,0.0587,0.0773,0.0784,0.0807,0.0803,0.0799,0.077,0.0741,0.0842,0.0843,0.0844,0.0844,0.0845,0,-0.069,-0.0751,-0.083,-0.0907,-0.0979,-0.0971,-0.0983,-0.098,-0.0939,-0.0778,-0.0627,-0.0337,-0.0006,0.0292,0.0601,0.081,0.077,0.0819,0.0728,0.0726,0.0725,0.0688,0.0741,0.0742,0.0742,0.0742,0,0,-0.0719,-0.0811,-0.0863,-0.1002,-0.1055,-0.1122,-0.113,-0.1096,-0.0991,-0.0857,-0.0694,-0.0417,-0.0019,0.0179,0.0445,0.0604,0.06,0.0598,0.0655,0.0514,0.051,0.069,0.063,0,0,0,0,0]}],[{"header":{"parameterUnit":"m.s-1","parameterCategory":2,"la1":30.2991,"la2":30.254,"lo1":-89.0895,"lo2":-89.0444,"dy":0.0017,"dx":0.0017,"nx":28,"ny":28,"refTime":"2024-04-09T21:00:00:Z","depth":"4","parameterNumber":2,"parameterNumberName":"U-component_of_CURRENTS"},"data":[0,0,0,0,0,0,0,0,0,0,0,0,0,0,0,0,0,0,0,0,0,0,0,0,0,0,0,0,0,0,0,0,0,0,0,0,0,0,0,0,0,0,0,0,0,0,0,0,0,0,0,0,0,0,0,0,0,0,-0.1173,-0.1173,0,-0.1213,-0.1213,-0.1213,-0.1243,-0.1244,-0.1244,-0.1245,-0.1248,-0.1247,-0.1247,0,0,0,0,0,0,0,0,0,0,0,0,0,-0.1096,-0.1097,-0.1173,-0.1173,-0.1174,-0.1213,-0.1213,-0.1213,-0.1243,-0.1244,-0.1244,-0.1245,-0.1248,-0.1247,-0.1247,0,0,0,0,0,0,0,0,0,0,0,0,0,-0.113,-0.1097,-0.1172,-0.1195,-0.1198,-0.1213,-0.1213,-0.1213,-0.1243,-0.1244,-0.1244,-0.1245,-0.1248,-0.1247,-0.1247,-0.1229,0,0,-0.1245,-0.1245,0,0,0,0,0,0,0,0,-0.1128,-0.1132,-0.1191,-0.1194,-0.1197,-0.1226,-0.1187,-0.1218,-0.1243,-0.1223,-0.1245,-0.1245,-0.1238,-0.1238,-0.1241,-0.1229,-0.123,-0.1245,-0.1245,-0.1245,-0.1244,0,0,0,0,0,0,0,-0.1125,-0.1131,-0.1186,-0.1192,-0.1195,-0.1195,-0.12,-0.1193,-0.1224,-0.1225,-0.1228,-0.1236,-0.1239,-0.1242,-0.1242,-0.123,-0.1245,-0.1245,-0.1244,-0.1244,-0.126,-0.1261,0,0,0,0,0,0,-0.1126,-0.1129,-0.1185,-0.1188,-0.1166,-0.1196,-0.1202,-0.1214,-0.1225,-0.1228,-0.1235,-0.1237,-0.1242,-0.1242,-0.1242,-0.1286,-0.1245,-0.1244,-0.1244,-0.126,-0.126,-0.1261,0,0,0,0,0,0,-0.1124,-0.1131,-0.1183,-0.116,-0.1167,-0.1197,-0.121,-0.1214,-0.1242,-0.1233,-0.1235,-0.1261,-0.1243,-0.1243,-0.126,-0.1284,-0.1244,-0.1243,-0.1259,-0.126,-0.1261,-0.1333,0,0,0,0,0,0,-0.1122,-0.113,-0.1146,-0.1161,-0.1169,-0.1211,-0.1209,-0.1215,-0.1245,-0.1248,-0.1255,-0.1255,-0.1244,-0.1261,-0.1259,-0.1283,-0.1243,-0.1258,-0.1259,-0.1261,-0.133,-0.1337,-0.1343,0,0,0,0,0,-0.1119,-0.1137,-0.1147,-0.1154,-0.1188,-0.1212,-0.1217,-0.1237,-0.1246,-0.1263,-0.1269,-0.1256,-0.1268,-0.1261,-0.1259,-0.1283,-0.1257,-0.1259,-0.126,-0.1327,-0.1336,-0.1343,0,0,0,0,0,0,-0.1113,-0.1143,-0.1154,-0.1181,-0.1204,-0.1219,-0.1239,-0.125,-0.1269,-0.1277,-0.1267,-0.1267,-0.1289,-0.1274,-0.1266,-0.129,-0.126,-0.1261,-0.1311,-0.1319,-0.1325,-0.1329,-0.1242,0,0,0,0,0,-0.1119,-0.1143,-0.1167,-0.1192,-0.1206,-0.1226,-0.1242,-0.1257,-0.1272,-0.1282,-0.1288,-0.1289,-0.129,-0.1297,-0.1292,-0.1307,-0.13,-0.1319,-0.1326,-0.1331,-0.1332,-0.1344,-0.1351,-0.1267,-0.1267,-0.1267,0,0,-0.1123,-0.1144,-0.1158,-0.1193,-0.1212,-0.124,-0.1238,-0.1271,-0.1297,-0.1277,-0.1317,-0.1312,-0.1298,-0.1317,-0.1325,-0.1312,-0.1355,-0.1333,-0.1338,-0.1336,-0.1346,-0.1355,-0.1362,-0.1268,-0.1268,-0.1268,0,0,-0.1138,-0.1164,-0.1188,-0.1213,-0.125,-0.1263,-0.1279,-0.1308,-0.1328,-0.1358,-0.1351,-0.1363,-0.1368,-0.1367,-0.1363,-0.1399,-0.1386,-0.1399,-0.1439,-0.1451,-0.1458,-0.1465,-0.1483,-0.149,-0.1406,-0.1406,-0.1406,0,-0.1143,-0.1177,-0.1198,-0.1229,-0.1256,-0.1278,-0.1311,-0.1332,-0.1365,-0.1383,-0.1381,-0.14,-0.139,-0.141,-0.1424,-0.1415,-0.1422,-0.1415,-0.1461,-0.1467,-0.1472,-0.1489,-0.1496,-0.1409,-0.1409,-0.1409,-0.1408,0,-0.117,-0.1208,-0.1226,-0.1274,-0.1303,-0.1337,-0.1369,-0.1403,-0.1426,-0.1443,-0.1478,-0.1468,-0.1478,-0.1479,-0.1463,-0.1496,-0.1491,-0.1467,-0.1445,-0.1485,-0.15,-0.1506,-0.1415,-0.1413,-0.1412,-0.1411,0,0,-0.1152,-0.123,-0.1239,-0.1273,-0.1333,-0.1357,-0.1409,-0.1455,-0.1493,-0.1518,-0.1561,-0.1561,-0.156,-0.1554,-0.1541,-0.1551,-0.1597,-0.1532,-0.1531,-0.1556,-0.1637,-0.1548,-0.1545,-0.1588,-0.1589,-0.159,-0.164,0,-0.1168,-0.123,-0.1269,-0.1334,-0.1368,-0.1415,-0.1463,-0.1509,-0.1543,-0.159,-0.1591,-0.1618,-0.1588,-0.1598,-0.1607,-0.1595,-0.1614,-0.1586,-0.1588,-0.1588,-0.1508,-0.1549,-0.1594,-0.1644,-0.1645,-0.1646,-0.1647,0,-0.1175,-0.122,-0.1283,-0.1371,-0.1392,-0.1436,-0.1516,-0.1561,-0.1625,-0.1653,-0.1681,-0.1685,-0.1706,-0.1672,-0.1685,-0.1673,-0.1664,-0.1653,-0.1654,-0.1546,-0.1509,-0.159,-0.1657,-0.1657,-0.1656,-0.1655,-0.1654,0,-0.1136,-0.1229,-0.128,-0.131,-0.1407,-0.1451,-0.1505,-0.1578,-0.1623,-0.1691,-0.1727,-0.1751,-0.1766,-0.176,-0.1736,-0.1721,-0.175,-0.1721,-0.1637,-0.1632,-0.1666,-0.1659,-0.1737,-0.1737,-0.1737,-0.1737,-0.1737,0,-0.1123,-0.1169,-0.127,-0.1297,-0.1369,-0.1442,-0.1516,-0.1575,-0.1657,-0.1708,-0.1751,-0.1778,-0.1789,-0.1802,-0.1774,-0.1723,-0.178,-0.1651,-0.1637,-0.1697,-0.1693,-0.1672,-0.1663,-0.1739,-0.1738,-0.1738,-0.1738,0,-0.1063,-0.1134,-0.1197,-0.1308,-0.135,-0.1396,-0.152,-0.1567,-0.1654,-0.1723,-0.1746,-0.1813,-0.1822,-0.1827,-0.1823,-0.1759,-0.1725,-0.1696,-0.178,-0.1769,-0.1596,-0.1591,-0.1608,-0.1605,-0.1603,-0.1601,-0.1599,0,-0.1036,-0.1061,-0.1183,-0.1225,-0.128,-0.1366,-0.1428,-0.1545,-0.1594,-0.1722,-0.1743,-0.18,-0.1825,-0.1747,-0.1763,-0.1723,-0.1692,-0.1676,-0.1613,-0.1597,-0.1583,-0.1581,-0.1579,-0.1596,-0.1595,-0.1594,-0.1594,0,-0.0971,-0.1018,-0.1064,-0.1152,-0.1226,-0.1307,-0.1403,-0.1433,-0.1563,-0.1665,-0.1686,-0.1687,-0.1705,-0.1682,-0.1669,-0.1633,-0.1683,-0.1651,-0.1655,-0.1595,-0.1582,-0.157,-0.1571,-0.1586,-0.1587,-0.1588,-0.1588,0,-0.0913,-0.0923,-0.0985,-0.1054,-0.1148,-0.121,-0.1282,-0.1347,-0.1413,-0.1562,-0.1565,-0.1623,-0.1693,-0.1637,-0.1622,-0.1585,-0.155,-0.1487,-0.1498,-0.1508,-0.1448,-0.1414,-0.136,0,0,0,0,0,-0.0845,-0.0839,-0.0889,-0.0957,-0.105,-0.1105,-0.1247,-0.1321,-0.1458,-0.1437,-0.1497,-0.1505,-0.149,-0.1518,-0.1453,-0.1572,-0.1553,-0.1491,-0.1486,-0.154,-0.155,-0.1485,0,0,0,0,0,0,-0.0796,-0.082,-0.0839,-0.0859,-0.0888,-0.098,-0.1065,-0.1168,-0.1169,-0.1305,-0.1298,-0.1401,-0.1397,-0.1483,-0.1408,-0.1419,-0.1386,-0.1537,-0.1534,-0.1535,-0.1543,-0.1551,-0.1488,0,0,0,0,0]},{"header":{"parameterUnit":"m.s-1","parameterCategory":2,"la1":30.2991,"la2":30.254,"lo1":-89.0895,"lo2":-89.0444,"dy":0.0017,"dx":0.0017,"nx":28,"ny":28,"refTime":"2024-04-09T21:00:00:Z","depth":"4","parameterNumber":3,"parameterNumberName":"V-component_of_CURRENTS"},"data":[0,0,0,0,0,0,0,0,0,0,0,0,0,0,0,0,0,0,0,0,0,0,0,0,0,0,0,0,0,0,0,0,0,0,0,0,0,0,0,0,0,0,0,0,0,0,0,0,0,0,0,0,0,0,0,0,0,0,-0.0096,-0.0095,0,-0.0034,-0.0033,-0.0033,-0.0003,-0.0003,-0.0003,-0.0003,0.0072,0.0074,0.0076,0,0,0,0,0,0,0,0,0,0,0,0,0,-0.0142,-0.0141,-0.0096,-0.0095,-0.0094,-0.0034,-0.0033,-0.0032,-0.0003,-0.0003,-0.0003,-0.0003,0.0072,0.0074,0.0077,0,0,0,0,0,0,0,0,0,0,0,0,0,-0.0105,-0.0141,-0.0096,-0.0073,-0.007,-0.0035,-0.0033,-0.0032,-0.0003,-0.0003,-0.0003,-0.0003,0.0071,0.0074,0.0077,0.0099,0,0,0.0087,0.0088,0,0,0,0,0,0,0,0,-0.0107,-0.0103,-0.0077,-0.0074,-0.0071,-0.0027,-0.0022,0.0012,-0.0003,-0.0027,-0.0003,-0.0003,0.004,0.0046,0.0059,0.0103,0.0106,0.0087,0.0089,0.009,0.0091,0,0,0,0,0,0,0,-0.0109,-0.0105,-0.007,-0.0076,-0.0073,-0.005,-0.0045,-0.0015,0.0007,-0.0025,-0.0023,-0.0018,0.0042,0.0055,0.0061,0.0107,0.0087,0.009,0.0091,0.0093,0.0192,0.0193,0,0,0,0,0,0,-0.0121,-0.0108,-0.0072,-0.0069,-0.0091,-0.005,-0.0044,-0.004,0.0007,0.0013,-0.0018,-0.0017,0.005,0.0057,0.0063,0.0101,0.009,0.0093,0.0095,0.0191,0.0192,0.0193,0,0,0,0,0,0,-0.0122,-0.0118,-0.0075,-0.0087,-0.008,-0.0049,-0.0045,-0.0039,-0.0026,0.0012,0.0019,-0.0011,0.005,0.0059,0.0095,0.0104,0.0094,0.0097,0.0191,0.0192,0.0193,0.0171,0,0,0,0,0,0,-0.0124,-0.0119,-0.0122,-0.0088,-0.008,-0.0058,-0.0045,-0.0038,-0.0023,-0.0021,0.002,0.0027,0.0051,0.009,0.0098,0.0108,0.01,0.019,0.0191,0.0192,0.0171,0.0171,0.0172,0,0,0,0,0,-0.0126,-0.013,-0.0123,-0.0118,-0.0085,-0.0058,-0.0052,-0.0029,-0.0023,-0.0018,0.0015,0.0026,0.0105,0.0093,0.0102,0.0113,0.0189,0.0191,0.0192,0.017,0.0171,0.0172,0,0,0,0,0,0,-0.0152,-0.0126,-0.0118,-0.0114,-0.009,-0.0054,-0.0049,-0.0031,-0.0001,-0.0,0.0036,0.0046,0.0081,0.0102,0.0089,0.0147,0.0149,0.0152,0.0129,0.013,0.013,0.0113,0.0102,0,0,0,0,0,-0.016,-0.0157,-0.0126,-0.0124,-0.0114,-0.0082,-0.0069,-0.0052,-0.0021,-0.0009,0.0023,0.0059,0.0096,0.0115,0.0147,0.018,0.0197,0.0194,0.0194,0.0194,0.0188,0.0225,0.0228,0.0199,0.0199,0.0199,0,0,-0.0171,-0.0156,-0.0155,-0.013,-0.0111,-0.0097,-0.0074,-0.0058,-0.0043,-0.0005,0.0025,0.006,0.0105,0.0141,0.0159,0.016,0.0213,0.0196,0.0196,0.019,0.0227,0.023,0.0232,0.02,0.02,0.02,0,0,-0.0192,-0.0178,-0.0182,-0.0162,-0.0137,-0.0113,-0.011,-0.0072,-0.0052,-0.0018,0.0016,0.0058,0.0108,0.0146,0.0171,0.0195,0.0212,0.0205,0.0196,0.0232,0.0234,0.0236,0.0262,0.0267,0.0207,0.0207,0.0207,0,-0.0207,-0.0208,-0.0179,-0.0174,-0.0163,-0.0123,-0.0122,-0.009,-0.0043,-0.0024,-0.0015,0.0073,0.0111,0.0164,0.0174,0.0195,0.0212,0.0188,0.0231,0.0234,0.0236,0.0262,0.0267,0.0206,0.0206,0.0206,0.0206,0,-0.0224,-0.0227,-0.0227,-0.0209,-0.0189,-0.0183,-0.0137,-0.0114,-0.0085,-0.005,0.0004,0.0062,0.0112,0.0137,0.0164,0.0207,0.0212,0.0224,0.0224,0.0237,0.0264,0.027,0.0205,0.0205,0.0205,0.0205,0,0,-0.0257,-0.0245,-0.0246,-0.0251,-0.021,-0.0199,-0.0168,-0.013,-0.0113,-0.0054,-0.0027,0.0053,0.0086,0.0116,0.0162,0.02,0.024,0.0216,0.0219,0.0231,0.0311,0.0294,0.0299,0.0256,0.0257,0.0258,0.0321,0,-0.0284,-0.0302,-0.0276,-0.0284,-0.0291,-0.0241,-0.0218,-0.0173,-0.0127,-0.0086,-0.0011,0.0034,0.0079,0.0102,0.0151,0.0218,0.0254,0.0221,0.0304,0.0307,0.0282,0.0305,0.0261,0.0326,0.0327,0.0328,0.0329,0,-0.0306,-0.0322,-0.0344,-0.0338,-0.0334,-0.0325,-0.0287,-0.0258,-0.018,-0.0144,-0.0077,-0.0017,0.0063,0.0088,0.021,0.0184,0.0241,0.0291,0.0295,0.0288,0.0301,0.0312,0.034,0.0339,0.0338,0.0337,0.0337,0,-0.0355,-0.0364,-0.0391,-0.0387,-0.0369,-0.0365,-0.0348,-0.0282,-0.026,-0.018,-0.0156,-0.005,-0.0001,0.0091,0.0209,0.0207,0.033,0.034,0.0379,0.0378,0.0382,0.0379,0.0412,0.0412,0.0412,0.0412,0.0411,0,-0.039,-0.0411,-0.0423,-0.0438,-0.0466,-0.0424,-0.0426,-0.0386,-0.0329,-0.0302,-0.0195,-0.0153,0.0,0.0097,0.0195,0.0308,0.0323,0.0378,0.0396,0.0373,0.0368,0.0387,0.0383,0.0414,0.0413,0.0413,0.0412,0,-0.0429,-0.0436,-0.0475,-0.0487,-0.0492,-0.0511,-0.0494,-0.049,-0.0423,-0.0385,-0.0363,-0.0227,-0.0095,0.0056,0.0212,0.0283,0.0394,0.0427,0.0387,0.0402,0.042,0.0415,0.0472,0.0472,0.0472,0.0472,0.0472,0,-0.0448,-0.0476,-0.0526,-0.056,-0.0569,-0.0589,-0.0603,-0.055,-0.0534,-0.043,-0.0416,-0.0279,-0.0176,0.0031,0.0189,0.0377,0.04,0.0449,0.0441,0.0415,0.0427,0.0422,0.0417,0.0472,0.0472,0.0472,0.0472,0,-0.0489,-0.0513,-0.055,-0.063,-0.0666,-0.0696,-0.0702,-0.0695,-0.0618,-0.0564,-0.0458,-0.0321,-0.0172,0.0012,0.0165,0.0298,0.0415,0.0449,0.045,0.0443,0.0416,0.0427,0.0422,0.0472,0.0472,0.0472,0.0472,0,-0.0519,-0.0562,-0.0623,-0.0685,-0.0745,-0.0781,-0.0774,-0.074,-0.0709,-0.0576,-0.0548,-0.0359,-0.0237,-0.0029,0.0109,0.0246,0.0275,0.0301,0.0311,0.0313,0.0251,0.0194,0.0196,0,0,0,0,0,-0.0543,-0.0597,-0.0671,-0.0741,-0.0805,-0.0831,-0.083,-0.0803,-0.0727,-0.067,-0.06,-0.0454,-0.0217,-0.0107,0.0024,0.01,0.029,0.0254,0.0322,0.0471,0.0471,0.0426,0,0,0,0,0,0,-0.0561,-0.0635,-0.0679,-0.0777,-0.0829,-0.0888,-0.0888,-0.0837,-0.0784,-0.0689,-0.0564,-0.0453,-0.0225,-0.0303,0.0013,0.006,0.0114,0.0383,0.0385,0.0471,0.0471,0.0471,0.0425,0,0,0,0,0]}]]